Window Rock, AZ

9:29 PM MDT on June 26, 2017 (GMT -0600)
Window Rock

Weather History for KRQE - December, 2012

Change the Weather History Date:

Friday, December 21, 2012

  Actual Average Record
Temperature  
Mean Temperature 22 °F -  
Max Temperature 44 °F 41 °F 58 °F (1950)
Min Temperature 0 °F 13 °F -13 °F (1951)
Degree Days  
Heating Degree Days 43    
Moisture  
Dew Point 4 °F    
Average Humidity 64    
Maximum Humidity 87    
Minimum Humidity 21    
Precipitation  
Precipitation 0.00 in - - ()
Sea Level Pressure  
Sea Level Pressure 30.41 in    
Wind  
Wind Speed 0 mph (North)    
Max Wind Speed 0 mph    
Max Gust Speed -    
Visibility 10 miles    
Events      
Averages and records for this station are not official NWS values.
T = Trace of Precipitation, MM = Missing Value Source: NWS Daily Summary

Daily Weather History Graph

Daily Weather History Graph

Search for Another Location

Airport or City:

Trip Planner

Search our weather history database for the weather conditions in past years. The results will help you decide how hot, cold, wet, or windy it might be!

Date:

Astronomy

Dec. 21, 2012 Rise Set
Actual Time 7:22 AM MST 5:07 PM MST
Civil Twilight 6:53 AM MST 5:35 PM MST
Nautical Twilight 6:21 AM MST 6:07 PM MST
Astronomical Twilight 5:50 AM MST 6:38 PM MST
Moon 12:48 PM MST (12/21) 1:20 AM MST (12/21)
Length of Visible Light 10h 41m
Length of Day
9h 44m
Waxing Gibbous, 65% of the Moon is Illuminated
Dec 21
Waxing Gibbous
Dec 28
Full
Jan 4
Last Quarter
Jan 11
New
Jan 18
First Quarter

Hourly Weather History & Observations

Time (MST) Temp. Dew Point Humidity Pressure Visibility Wind Dir Wind Speed Gust Speed Precip Events Conditions
12:53 AM 1.9 °F -2.0 °F 83% 30.48 in 10.0 mi Calm Calm - N/A   Clear
1:53 AM 3.0 °F -0.9 °F 84% 30.47 in 10.0 mi Calm Calm - N/A   Clear
2:53 AM 1.0 °F -2.0 °F 87% 30.46 in 10.0 mi Calm Calm - N/A   Clear
3:53 AM 1.0 °F -4.0 °F 79% 30.45 in 10.0 mi Calm Calm - N/A   Clear
4:53 AM 1.9 °F -2.9 °F 80% 30.46 in 10.0 mi Calm Calm - N/A   Clear
5:53 AM 1.0 °F -2.9 °F 83% 30.48 in 10.0 mi Calm Calm - N/A   Clear
6:53 AM -0.0 °F -5.1 °F 79% 30.51 in 10.0 mi Calm Calm - N/A   Clear
7:53 AM -0.0 °F -4.0 °F 83% 30.53 in 10.0 mi Calm Calm - N/A   Clear
8:53 AM 7.0 °F 3.0 °F 84% 30.52 in 10.0 mi Calm Calm - N/A   Clear
9:53 AM 16.0 °F 8.1 °F 71% 30.48 in 10.0 mi Calm Calm - N/A   Clear
10:53 AM 24.1 °F 10.0 °F 55% 30.43 in 10.0 mi Calm Calm - N/A   Clear
11:53 AM 32.0 °F 9.0 °F 38% 30.36 in 10.0 mi Calm Calm - N/A   Clear
12:53 PM 37.0 °F 5.0 °F 26% 30.30 in 10.0 mi Calm Calm - N/A   Clear
1:53 PM 39.9 °F 6.1 °F 25% 30.26 in 10.0 mi Calm Calm - N/A   Clear
2:53 PM 43.0 °F 7.0 °F 23% 30.25 in 10.0 mi Calm Calm - N/A   Clear
3:53 PM 44.1 °F 6.1 °F 21% 30.23 in 10.0 mi Calm Calm - N/A   Clear
4:53 PM 37.9 °F 10.0 °F 32% 30.28 in 10.0 mi Calm Calm - N/A   Clear
5:53 PM 24.1 °F 12.0 °F 60% 30.35 in 10.0 mi Calm Calm - N/A   Clear
6:53 PM 23.0 °F 12.0 °F 63% 30.37 in 10.0 mi Calm Calm - N/A   Clear
7:53 PM 14.0 °F 8.1 °F 77% 30.43 in 10.0 mi Calm Calm - N/A   Clear
8:53 PM 12.9 °F 9.0 °F 84% 30.42 in 10.0 mi Calm Calm - N/A   Clear
9:53 PM 12.0 °F 8.1 °F 84% 30.39 in 10.0 mi Calm Calm - N/A   Clear